San Antonio, TX

5:37 PM CST on December 16, 2017 (GMT -0600)
San Antonio International

Weather History for KSAT - November, 2011

Change the Weather History Date:

Sunday, November 6, 2011

  Actual Average Record
Temperature  
Mean Temperature 74 °F 65 °F  
Max Temperature 80 °F 76 °F 91 °F (1996)
Min Temperature 68 °F 54 °F 32 °F (1970)
Degree Days  
Heating Degree Days 0 4  
Month to date heating degree days 31 19  
Since 1 July heating degree days 64 52  
Cooling Degree Days 9 3  
Month to date cooling degree days 16 22  
Year to date cooling degree days 3903 3077  
Growing Degree Days 24 (Base 50)    
Moisture  
Dew Point 66 °F    
Average Humidity 79    
Maximum Humidity 90    
Minimum Humidity 67    
Precipitation  
Precipitation T in 0.08 in 0.99 in (1889)
Month to date precipitation T 0.55  
Year to date precipitation 12.93 28.63  
Snow  
Snow 0.00 in - - ()
Month to date snowfall 0.0  
Since 1 July snowfall 0.0  
Since 1 September snowfall 0.0  
Snow Depth 0.00 in    
Sea Level Pressure  
Sea Level Pressure 29.93 in    
Wind  
Wind Speed 11 mph (SE)    
Max Wind Speed 21 mph    
Max Gust Speed 26 mph    
Visibility 10 miles    
Events      
T = Trace of Precipitation, MM = Missing Value Source: NWS Daily Summary

Daily Weather History Graph

Daily Weather History Graph

Search for Another Location

Airport or City:

Trip Planner

Search our weather history database for the weather conditions in past years. The results will help you decide how hot, cold, wet, or windy it might be!

Date:

Astronomy

Nov. 06, 2011 Rise Set
Actual Time 6:50 AM CST 5:43 PM CST
Civil Twilight 6:25 AM CST 6:08 PM CST
Nautical Twilight 5:57 AM CST 6:37 PM CST
Astronomical Twilight 5:29 AM CST 7:05 PM CST
Moon 3:16 PM CST (11/6) 3:13 AM CST (11/6)
Length of Visible Light 11h 42m
Length of Day
10h 53m
Waxing Gibbous, 86% of the Moon is Illuminated
Nov 6
Waxing Gibbous
Nov 10
Full
Nov 18
Last Quarter
Nov 25
New
Dec 2
First Quarter

Hourly Weather History & Observations

Time (CST) Temp. Heat Index Dew Point Humidity Pressure Visibility Wind Dir Wind Speed Gust Speed Precip Events Conditions
12:53 AM 68.0 °F - 63.0 °F 84% 29.89 in 10.0 mi ESE 11.5 mph - N/A   Overcast
1:53 AM 68.0 °F - 63.0 °F 84% 29.88 in 10.0 mi ESE 9.2 mph - N/A   Overcast
1:50 AM 68.0 °F - 64.4 °F 88% 29.92 in 10.0 mi ESE 5.8 mph - N/A   Overcast
1:53 AM 68.0 °F - 64.0 °F 87% 29.88 in 10.0 mi ESE 6.9 mph - N/A   Overcast
2:53 AM 69.1 °F - 64.0 °F 84% 29.88 in 10.0 mi SE 6.9 mph - N/A   Overcast
3:53 AM 70.0 °F - 64.9 °F 84% 29.88 in 10.0 mi SSE 9.2 mph - N/A   Overcast
4:53 AM 70.0 °F - 66.0 °F 87% 29.89 in 10.0 mi SSE 10.4 mph - 0.00 in   Overcast
5:53 AM 70.0 °F - 66.0 °F 87% 29.91 in 10.0 mi SSE 8.1 mph - N/A   Overcast
6:53 AM 70.0 °F - 66.0 °F 87% 29.93 in 10.0 mi SE 6.9 mph - N/A   Overcast
7:53 AM 70.0 °F - 66.9 °F 90% 29.95 in 10.0 mi SE 6.9 mph - N/A   Overcast
8:53 AM 72.0 °F - 66.9 °F 84% 29.97 in 10.0 mi SE 8.1 mph - N/A   Overcast
9:53 AM 73.0 °F - 68.0 °F 84% 29.97 in 10.0 mi SSE 9.2 mph - 0.00 in   Light Drizzle
10:42 AM 73.4 °F - 68.0 °F 83% 30.02 in 10.0 mi SSE 12.7 mph - 0.00 in   Overcast
10:53 AM 73.9 °F - 68.0 °F 82% 29.97 in 10.0 mi SSE 10.4 mph - 0.00 in   Overcast
11:53 AM 75.9 °F - 68.0 °F 76% 29.95 in 10.0 mi SE 8.1 mph - N/A   Overcast
12:53 PM 77.0 °F - 68.0 °F 74% 29.92 in 10.0 mi SE 11.5 mph - N/A   Overcast
1:36 PM 78.8 °F - 68.0 °F 69% 29.95 in 10.0 mi ESE 10.4 mph - N/A   Overcast
1:53 PM 79.0 °F - 68.0 °F 69% 29.90 in 10.0 mi SE 8.1 mph - N/A   Overcast
2:53 PM 80.1 °F 82.7 °F 68.0 °F 67% 29.89 in 10.0 mi SSE 12.7 mph - 0.00 in   Overcast
3:53 PM 79.0 °F - 66.9 °F 66% 29.89 in 10.0 mi SE 18.4 mph - N/A   Overcast
4:53 PM 77.0 °F - 66.9 °F 71% 29.90 in 10.0 mi ESE 11.5 mph - N/A   Overcast
5:53 PM 75.9 °F - 66.9 °F 74% 29.91 in 10.0 mi SE 16.1 mph - N/A   Overcast
6:39 PM 75.2 °F - 66.2 °F 73% 29.98 in 10.0 mi SE 13.8 mph - N/A   Overcast
6:53 PM 75.0 °F - 66.9 °F 76% 29.94 in 10.0 mi SE 17.3 mph 21.9 mph N/A   Overcast
7:39 PM 75.2 °F - 66.2 °F 73% 30.00 in 10.0 mi SE 15.0 mph 23.0 mph N/A   Overcast
7:53 PM 73.9 °F - 66.9 °F 79% 29.96 in 10.0 mi SE 13.8 mph - N/A   Overcast
8:53 PM 73.9 °F - 66.9 °F 79% 29.97 in 10.0 mi SE 11.5 mph 20.7 mph N/A   Overcast
9:53 PM 73.9 °F - 66.9 °F 79% 29.97 in 10.0 mi SE 15.0 mph 23.0 mph N/A   Overcast
10:53 PM 73.9 °F - 68.0 °F 82% 29.97 in 10.0 mi SE 15.0 mph - N/A   Overcast